www.pogodaiklimat.ru

Погода и климат >> Архив погоды >> Украина >> Великая Александровка


ПОГОДА в Великой Александровке

  • Прогноз погоды в Великой Александровке
  • Монитор погоды в Великой Александровке

АРХИВ ПОГОДЫ в Великой Александровке

Время (UTC), дата Ветер
(напр.,м/с)
 
Видим.   Явления Облачность Т
(С)
Тd
(С)
f
(%)
Тe
(С)
Тes
(С)
Комфортность P
(гПа)
Po
(гПа)
Тmin
(С)
Tmax
(С)
R
(мм)
R24
(мм)
S
(см)
15 12.08 штиль 0 20 км 3/3 600 м
[Cu hum]
+32.0 +15.8 38 +35 +37 очень
душно
1015.8 1009.3
18 12.08 ЮВ 1 20 км 1/0
[Ac lent]
+26.6 +16.0 52 +30 +30 душно 1017.1 1010.5 +33.1
21 12.08 ЮВ 2 20 км ясно +24.3 +16.5 62 +28 +28 душно 1017.5 1010.8
00 13.08 штиль 0 20 км ясно +22.6 +18.5 78 +28 +28 душно 1017.1 1010.4
03 13.08 штиль 0 10 км ясно +19.8 +17.9 89 +22 +22 комфорт 1017.7 1010.9
06 13.08 Ю 2 20 км ясно +26.3 +17.9 60 +31 +37 душно 1017.4 1010.8 +19.7
09 13.08 Ю 3 20 км ясно +30.5 +15.8 41 +33 +46 душно 1017.2 1010.7
12 13.08 ЮВ 3 20 км 1/1 1000 м
[Cu hum]
+31.9 +16.5 40 +35 +44 очень
душно
1016.1 1009.6
15 13.08 ЮВ 2 20 км ясно +31.6 +15.9 39 +34 +36 душно 1014.8 1008.3
18 13.08 Ю 2 20 км ясно +26.8 +15.9 51 +30 +30 душно 1015.2 1008.6 +32.5
21 13.08 Ю 1 20 км ясно +22.7 +15.0 62 +27 +27 душно 1016.0 1009.3
00 14.08 штиль 0 20 км ясно +19.9 +15.3 75 +22 +22 комфорт 1015.6 1008.8
03 14.08 штиль 0 20 км ясно +16.2 +13.0 81 +16 +16 1015.4 1008.5
06 14.08 В 1 20 км ясно +25.0 +14.0 50 +27 +35 жарко 1014.5 1007.8 +16.1
09 14.08 В 3 20 км ясно +29.9 +10.7 30 +30 +42 жарко 1012.9 1006.4
12 14.08 В 4 20 км ясно +32.1 +10.1 26 +32 +39 жарко 1011.0 1004.5
15 14.08 ЮВ 3 20 км ясно +32.2 +3.8 17 +30 +31 жарко 1009.8 1003.3
18 14.08 ЮВ 1 20 км ясно +25.5 +10.5 39 +26 +26 жарко 1009.6 1003.0 +32.8
21 14.08 ЮВ 2 20 км ясно +21.6 +11.1 51 +23 +23 комфорт 1008.9 1002.2
00 15.08 В 1 20 км 4/0
[Ci fib]
+18.9 +12.7 67 +21 +21 комфорт 1008.5 1001.7
03 15.08 ЮВ 1 20 км 8/0
[Ac trans Cc]
+19.1 +13.5 70 +21 +21 комфорт 1008.1 1001.4
06 15.08 ЮВ 1 20 км 9/3 600 м
[Sc Ac trans Cs]
+24.5 +17.5 65 +29 +31 душно 1007.8 1001.2 +16.8
09 15.08 Ю 1 20 км слаб. ливневой дождь 9/9 600 м
[Cb cap]
+27.1 +18.5 59 +32 +34 очень
душно
1007.4 1000.9
12 15.08 штиль 0 20 км {ливн. осадки} 10/10 600 м
[Cb cap]
+27.5 +19.5 62 +33 +33 очень
душно
1006.5 1000.0
15 15.08 штиль 0 20 км слаб. ливневой дождь 10/10 600 м
[Cb cap]
+25.6 +21.4 78 +33 +33 очень
душно
1008.2 1001.6
18 15.08 штиль 0 20 км слаб. ливневой дождь 10/10 600 м
[Cb cap]
+22.9 +20.0 84 +30 +30 очень
душно
1008.2 1001.6 +28.4 2
21 15.08 штиль 0 20 км {ливн. осадки} 3/0
[Ac trans]
+20.5 +19.2 92 +24 +24 комфорт 1008.7 1002.0
00 16.08 ЮЗ 1 4000 м дымка {ливн. осадки} ясно +18.6 +18.1 97 +21 +21 комфорт 1008.7 1002.0
03 16.08 ЮЗ 1 2000 м дымка 4/0
[Ac trans Ci fib]
+17.3 +17.0 98 +18 +18 1008.9 1002.1
06 16.08 С 2 10 км 9/0
[Ci fib]
+20.0 +17.2 84 +23 +28 комфорт 1009.4 1002.7 +17.2 0.0
09 16.08 СЗ 2 20 км 9/0
[Ac lent Ci fib]
+24.9 +18.8 69 +30 +38 душно 1008.8 1002.2
12 16.08 З 2 20 км 8/3 600 м
[Cu med, cong Ci fib]
+27.9 +16.9 51 +32 +38 душно 1008.4 1001.9
15 16.08 СЗ 3 20 км 9/3 600 м
[Sc Ac und Ci fib]
+25.1 +15.6 56 +28 +29 жарко 1008.7 1002.1
18 16.08 С 3 20 км 9/6 600 м
[Sc Ac trans Ci fib]
+21.3 +15.1 68 +24 +24 комфорт 1010.6 1003.9 +28.2
21 16.08 С 2 20 км 9/8 600 м
[Sc Ac trans]
+18.5 +15.1 81 +20 +20 1011.2 1004.4
00 17.08 С 1 10 км 8/3 600 м
[Sc Ac trans]
+16.6 +14.5 87 +17 +17 1010.7 1003.9
03 17.08 штиль 0 10 км 10/10 600 м
[Sc]
+17.4 +14.8 85 +17 +17 1011.2 1004.4
06 17.08 С 2 20 км 8/5 600 м
[Cb calv Ci fib]
+18.8 +13.3 70 +20 +23 1011.3 1004.5 +16.5
09 17.08 СЗ 2 20 км 8/8 600 м
[Cu Sc]
+20.8 +12.3 58 +24 +27 комфорт 1011.1 1004.4
12 17.08 СЗ 3 20 км 9/9 600 м
[Cu Sc]
+22.5 +12.1 52 +25 +26 комфорт 1010.9 1004.2
15 17.08 СЗ 2 20 км 9/9 600 м
[Cb calv]
+22.6 +13.3 56 +26 +26 жарко 1011.0 1004.3
18 17.08 СЗ 2 20 км 9/9 600 м
[Sc]
+20.2 +12.8 62 +23 +23 комфорт 1011.8 1005.1 +23.1
21 17.08 Ю 2 20 км 8/0 600 м
[Ac und]
+16.8 +13.2 79 +17 +17 1012.2 1005.4
00 18.08 штиль 0 10 км ясно +14.6 +12.8 89 +14 +14 1012.7 1005.8
03 18.08 штиль 0 10 км 4/0
[Ac und]
+13.2 +11.9 92 +13 +13 1012.8 1005.9
06 18.08 С 2 20 км 10/10 600 м
[Sc]
+18.0 +14.0 77 +19 +19 1013.6 1006.8 +13.0
09 18.08 С 2 20 км 9/8 600 м
[Cu med, cong Ci fib]
+21.0 +13.9 64 +25 +27 комфорт 1013.6 1006.9
12 18.08 С 3 20 км 9/6 600 м
[Cb calv Ac und]
+23.5 +13.5 53 +26 +28 жарко 1013.9 1007.2
15 18.08 СВ 1 20 км 5/3 600 м
[Cu med, cong Ci sp]
+23.9 +13.4 52 +26 +28 жарко 1014.2 1007.5
18 18.08 штиль 0 20 км ясно +19.4 +13.8 70 +21 +21 комфорт 1015.2 1008.4 +25.1
21 18.08 штиль 0 20 км 3/0
[Ac trans]
+16.3 +12.9 80 +16 +16 1016.4 1009.5
00 19.08 штиль 0 20 км ясно +13.9 +11.8 87 +13 +13 1016.9 1010.0
03 19.08 штиль 0 10 км ясно +12.6 +10.9 89 +12 +12 1018.1 1011.1
06 19.08 штиль 0 20 км ясно +18.7 +14.2 75 +19 +27 1018.8 1012.0 +12.4
09 19.08 С 4 20 км ясно +25.1 +11.5 43 +27 +36 жарко 1018.5 1011.8

 

Местоположение метеостанции Великая Александровка (Херсонская область, Украина): широта 47.32 долгота 33.28 высота над уровнем моря 56 м.

В архиве по умолчанию представлена погода в Великой Александровке за последнюю неделю. Архивные данные за месяц целиком и за предыдущие месяцы, начиная с января 2011 года, Вы можете получить, выбрав интересующий диапазон дат из раскрывающегося списка и нажав кнопку "Ввод!".


*Определитесь, кто Вы:
робот инопланетянин человек

Внимание! Время в таблицах - всемирное. Для получения местного времени необходимо прибавить поправку, которая равна 2 ч.

Смотрите также архив погоды в соседних городах и на ближайших метеорологических станциях:

Погода в Новой Каховке (Херсонская область, Украина) (60 км)
Погода в Баштанке (Николаевская область, Украина) (62 км)
Погода в Кривом Роге (Днепропетровская область, Украина) (79 км)
Погода в Никополе (Днепропетровская область, Украина) (93 км)
Погода в Херсоне (Херсонская область, Украина) (94 км)
Погода в Долинской (Кировоградская область, Украина) (97 км)
Погода в Нижних Серогозах (Херсонская область, Украина) (100 км)
Погода в Лошкаревке (Днепропетровская область, Украина) (102 км)
Погода в Николаеве (Николаевская область, Украина) (106 км)
Погода в Аскании-Нове (Херсонская область, Украина) (107 км)

Пояснения к столбцам:

Ветер - указаны скорость ветра в м/с - средняя за 10 мин, порывы в срок и между сроками (в фигурных скобках) и направление, откуда дует ветер: С - северный, СВ - северо-восточный, В - восточный, ЮВ - юго-восточный, Ю - южный, ЮЗ - юго-западный, З - западный, СЗ - северо-западный.
Видимость - горизонтальная дальность видимости в метрах или километрах. При видимости от 1 до 10 км при отсутствии осадков обычно наблюдается дымка, при ухудшении видимости до 1 км и менее - туман. В сухую погоду видимость может ухудшаться дымом, пылью или мглою.
Явления - указаны атмосферные явления, наблюдавшиеся в срок или в последний час перед сроком; фигурными скобками обозначены явления, наблюдавшиеся между сроками (за 1-3 часа до срока); квадратными скобками обозначены град или гололедные отложения с указанием их диаметра в мм.
Облачность - указаны через наклонную черту общая и нижняя облачность в баллах и высота нижней границы облаков в метрах; квадратными скобками обозначены формы облаков: Ci - перистые, Cs - перисто-слоистые, Cc - перисто-кучевые, Ac - высококучевые, As - высокослоистые, Sc - слоисто-кучевые, Ns - слоисто-дождевые, Cu - кучевые, Cb - кучево-дождевые. Подробнее классификацию облаков см. в Атласе облаков (PDF).
T - Температура воздуха - температура, измеренная на высоте 2 м над землей.
Td - Температура точки росы - температура, при понижении до которой содержащийся в воздухе водяной пар достигнет насыщения.
f - Относительная влажность воздуха - влажноcть воздуха, измеренная на высоте 2 м над землей.
Te - Эффективная температура - температура, которую ощущает одетый по сезону человек в тени. Характеристика душности погоды. При расчете учитывается влияние влажности воздуха и скорости ветра на теплоощущения человека.
Tes - Эффективная температура на солнце - температура, которую ощущает человек, с поправкой на солнечный нагрев. Характеристика знойности погоды. Зависит от высоты солнца над горизонтом, облачности и скорости ветра. Ночью, в пасмурную погоду, а также при ветре 12 м/с и более поправка равна нулю.
P - Атмосферное давление - приведенное к уровню моря атмосферное давление.
Po - Атмосферное давление - измеренное на уровне метеостанции атмосферное давление.
Tmin - Минимальная температура - минимум температуры воздуха на высоте 2 м над землей.
Tmax - Максимальная температура - максимум температуры воздуха на высоте 2 м над землей.
R - Количество осадков - Количество выпавших осадков за период времени, мм. При наведении курсора мыши на число - период времени, за который выпало указанное количество осадков.
R24 - Количество осадков - Количество выпавших осадков за 24 часа, мм.
S - Снежный покров - Высота снежного покрова, см. При наведении курсора мыши на число - состояние снежного покрова и степень покрытия местности в баллах.